Regional Weather Roundup
Issued by NWS

Home | Current Version | Previous Version | Graphics & Text | Print | Product List | Glossary On
Versions: 1 2 3 4 5 6 7 8 9 10 11 12 13 14 15 16 17 18 19 20 21 22 23 24 25 26 27 28 29 30 31 32 33 34 35 36 37 38 39 40 41 42 43 44 45 46 47 48 49 50
000
ASUS43 KDTX 241610
RWRMI
MICHIGAN HOURLY REGIONAL WEATHER ROUNDUP
NATIONAL WEATHER SERVICE DETROIT/PONTIAC MI
1200 PM EDT TUE MAY 24 2016

NOTE: "FAIR" INDICATES FEW OR NO CLOUDS BELOW 12,000 FEET WITH NO
SIGNIFICANT WEATHER AND/OR OBSTRUCTION TO VISIBILITY.

MIZ047>049-052>055-059>063-066>070-074>076-081>083-241700-
SOUTHEAST LOWER MICHIGAN

CITY           SKY/WX    TMP DP  RH WIND       PRES   REMARKS
ADRIAN         SUNNY     77  48  35 SW12G17   30.06F
ALMA           SUNNY     77  49  36 SW12      30.00F
ANN ARBOR      SUNNY     78  49  35 SW10      30.04F
BAD AXE        SUNNY     77  47  34 SW9       30.01S
CARO           SUNNY     79  51  37 SW7       30.00S
DETROIT CITY   SUNNY     78  42  27 SW7       30.04S
DETROIT        MOSUNNY   80  47  31 S9        30.04F
FLINT          SUNNY     83  49  30 W8        30.01F
GROSSE ILE     SUNNY     72  55  56 S7        30.04S
HILLSDALE      SUNNY     78  37  23 SW8       30.06S
HOWELL         SUNNY     79  48  33 W12       30.03S

CITY           SKY/WX    TMP DP  RH WIND       PRES   REMARKS
JACKSON        SUNNY     78  48  34 SW9       30.04F
LAMBERTVILLE   SUNNY     79  46  31 W8        30.06F
LANSING        SUNNY     80  50  34 W8        30.02S
LAPEER         FAIR      79  42  26 W12       30.03S
MASON          SUNNY     78  50  37 SW7       30.03S
MONROE         SUNNY     80  48  32 W8G16     30.04F
MT. CLEMENS    SUNNY     80  45  28 SW7       30.03S
PONTIAC        MOSUNNY   78  45  30 VRB6      30.03S
PORT HOPE        N/A     79  48  33 VRB6      29.98R
PORT HURON     SUNNY     77  41  27 W7        30.03R
TRI CITIES     SUNNY     81  48  31 SW12      30.00S
MIDLAND        FAIR      81  49  33 CALM      29.98S
TROY           SUNNY     80  41  24 SW9       30.05S
SAGINAW HB     SUNNY     79  45  29 SW7       29.99S
$$
MIZ043>046-050>051-056>058-064>065-071>073-077>080-241700-
SOUTHWEST LOWER MICHIGAN

CITY           SKY/WX    TMP DP  RH WIND       PRES   REMARKS
BATTLE CREEK   SUNNY     79  52  38 W10       30.04S
BENTON HARBOR  MOSUNNY   78  53  41 SW12      30.03R
BIG RAPIDS     SUNNY     78  50  38 W7        30.00R
COLDWATER      SUNNY     78  49  35 SW12      30.04S
FREMONT        FAIR      80  49  33 SW10      30.00S
HOLLAND        MOSUNNY   75  52  44 SW9       30.04R
GRAND RAPIDS   PTSUNNY   81  50  33 W10       30.03R
IONIA          FAIR      79  47  32 W9        30.01S
KALAMAZOO      MOSUNNY   79  51  37 NW10      30.04R
LUDINGTON      SUNNY     74  51  44 SW8       29.98R
MARSHALL       SUNNY     80  53  38 W6        30.03S
MOUNT PLEASANT SUNNY     80  51  36 W3        29.98S
MUSKEGON       PTSUNNY   73  48  41 SW9       30.02R
SOUTH HAVEN    MOSUNNY   76  50  39 W8        30.03R
$$
MIZ016>042-241700-
NORTHERN LOWER MICHIGAN

CITY           SKY/WX    TMP DP  RH WIND       PRES   REMARKS
ALPENA         SUNNY     84  44  24 SW8       29.94S
BEAVER ISLAND  CLOUDY    70  47  44 SW9       29.93S
BELLAIRE       SUNNY     81  46  29 SW7       29.94S
CADILLAC       CLOUDY    80  48  32 SW10      29.98S
CHARLEVOIX     MOSUNNY   76  46  35 W12       29.97S
FRANKFORT      MOSUNNY   75  50  40 SW12      29.95S
GAYLORD        SUNNY     81  44  27 W15G21    29.96S
GRAYLING       SUNNY     83  46  26 W10       29.97S
HARBOR SPRINGS SUNNY     75  47  37 W6        29.94S
HOUGHTON LAKE  SUNNY     79  46  31 SW6       29.98S
MANISTEE       MOSUNNY   79  48  34 S8        29.97S
OSCODA         SUNNY     83  45  26 S8        29.95S
PELLSTON       SUNNY     79  47  32 SW9       29.93S
ROGERS CITY    SUNNY     71  45  38 NE10      29.93S
TRAVERSE CITY  PTSUNNY   83  47  28 W10       29.94R
$$
MIZ007>008-015-241700-
EASTERN UPPER MICHIGAN

CITY           SKY/WX    TMP DP  RH WIND       PRES   REMARKS
KINROSS          N/A     77  46  33 SW7       29.91S
MACKINAC ISLAN SUNNY     69  44  40 W10G20    29.93S
NEWBERRY       LGT RAIN  68  54  59 CALM      29.91S VSB 1
S. S. MARIE    SUNNY     73  49  42 VRB3      29.90F
MUNISING         N/A     63  53  70 N6        29.92R
$$
MIZ004>006-011>014-085-241700-
CENTRAL UPPER MICHIGAN

CITY           SKY/WX    TMP DP  RH WIND       PRES   REMARKS
MANISTIQUE     MOSUNNY   60  49  67 S7        29.92S
ESCANABA       CLOUDY    66  52  59 S8        29.91R
MENOMINEE        N/A     75  57  53 E8        29.92
SAWYER-GWINN   LGT RAIN  63  59  88 SE3       29.92R
$$
MIZ001>003-009>011-084-241700-
WESTERN UPPER MICHIGAN

CITY           SKY/WX    TMP DP  RH WIND       PRES   REMARKS
IRON MOUNTAIN  CLOUDY    72  60  66 VRB3      29.91R
HOUGHTON       CLOUDY    67  57  70 E5        29.88S
COPPER HARBOR    N/A     51  50  96 CALM      29.91R
$$

ABBREVIATIONS USED IN REMARKS
   TC - TEMPERATURE IN CELSIUS
  WCI - WIND CHILL INDEX
   HX - HEAT INDEX
  VSB - VISIBILITY




USA.gov is the U.S. government's official web portal to all federal, state and local government web resources and services.